Theta_e
330 332 334 336 334 333 336 338 340 340 340 340 339 338 337 337 336 335 335 335 337 336 334 332 332 330 329 328 326 324 316 317
330 329 330 327 328 332 332 337 338 339 339 339 338 337 337 334 333 333 333 333 334 335 333 332 331 330 328 327 326 323 315 317
325 324 324 324 324 326 330 333 334 337 339 337 334 332 329 327 330 331 331 329 331 333 333 331 329 329 328 326 321 316 316 317
324 322 321 321 323 325 324 323 331 334 336 334 332 328 325 327 329 329 328 328 328 330 331 330 325 322 323 321 316 316 317 318
323 321 320 320 320 320 321 319 326 331 332 331 328 326 327 324 323 323 321 323 316 317 314 314 315 315 315 315 316 317 317 319
323 321 320 320 318 319 319 320 322 322 328 329 327 325 322 321 319 318 315 313 312 311 309 308 310 312 314 315 315 316 316 318
323 322 321 318 316 317 318 320 320 323 324 327 326 321 320 319 318 315 314 313 311 308 306 306 306 308 311 313 314 315 316 317
322 321 321 318 316 316 317 319 319 322 324 323 321 319 318 318 316 314 312 312 311 308 306 303 302 303 306 308 310 312 312 314
322 321 319 319 319 318 319 320 319 321 323 321 319 317 316 316 314 313 312 311 311 308 306 302 300 301 302 305 306 305 306 307
319 323 319 318 318 320 323 323 322 322 321 319 318 318 317 315 313 313 313 312 312 309 307 304 300 300 299 300 302 303 304 304
317 321 320 320 319 319 320 320 322 321 319 318 318 318 318 316 315 314 315 313 312 310 307 306 301 299 299 299 300 300 301 305
316 318 320 319 318 316 316 315 314 317 319 319 319 320 320 318 317 316 315 314 311 309 306 305 304 301 301 299 298 299 299 300
315 316 317 316 316 316 315 314 313 313 316 319 321 322 323 320 319 318 316 313 313 310 307 304 302 302 300 300 300 299 299 298
315 315 316 317 316 317 318 316 315 314 313 315 318 319 321 321 319 317 315 313 311 309 306 303 303 301 299 298 297 299 300 300
314 314 315 316 317 316 314 315 313 312 312 311 314 317 317 319 319 317 315 313 311 309 307 304 302 301 302 302 296 296 297 298
312 313 313 314 316 314 314 313 311 313 312 311 312 316 317 317 318 318 316 314 312 311 310 306 305 303 304 304 302 300 297 296
307 311 312 312 312 313 314 314 314 313 310 310 311 312 316 317 315 315 316 315 314 313 311 308 308 307 305 303 302 300 298 298
307 308 309 309 308 309 309 310 308 308 308 308 308 310 311 314 315 315 315 315 313 312 311 310 309 309 308 307 303 301 299 298
308 308 308 309 308 307 307 307 308 307 308 308 308 309 310 312 312 313 313 314 314 314 313 313 311 310 309 308 307 305 304 301
307 308 308 309 308 308 308 308 308 309 310 310 310 311 311 312 314 315 314 315 315 316 316 314 313 311 310 309 307 305 303 301
Wind_Speed
3 5 6 11 7 12 16 17 20 21 23 20 19 14 17 20 20 20 20 19 22 23 22 22 20 20 19 17 17 15 7 5
7 6 6 8 2 20 14 16 20 21 23 18 14 14 16 19 20 20 20 20 21 20 21 20 20 18 17 16 15 15 6 6
15 9 11 13 12 11 11 17 21 22 19 18 12 6 7 11 15 20 18 18 18 17 19 20 18 17 17 15 13 4 5 4
13 14 13 16 11 11 5 4 12 12 13 12 7 6 4 8 14 20 18 15 16 18 19 19 14 6 7 11 4 5 4 3
11 12 16 15 10 9 6 3 2 8 13 9 7 5 4 3 5 7 8 11 5 8 8 6 8 6 4 4 4 4 2 2
13 13 11 11 8 9 6 4 3 1 8 11 7 4 4 4 5 4 7 4 6 4 5 6 7 7 6 6 5 4 3 2
13 14 12 11 10 7 5 6 3 2 4 9 8 5 5 3 5 4 5 5 7 5 5 6 7 6 5 6 5 5 4 2
9 11 11 13 12 12 8 8 6 2 3 3 8 5 5 5 4 5 5 5 4 5 6 6 5 5 5 5 5 4 4 4
11 11 12 11 11 12 10 8 8 7 5 6 9 6 6 7 5 5 5 5 6 5 5 5 5 4 6 4 4 5 4 4
4 10 12 11 11 10 9 8 8 9 8 5 8 8 7 7 5 4 5 6 5 4 5 5 4 4 4 4 4 4 5 4
5 4 16 13 9 6 7 8 8 7 5 6 8 8 7 8 5 4 7 5 5 5 3 4 4 3 4 4 3 3 4 3
6 4 11 13 9 7 5 5 4 5 5 6 8 8 7 5 4 5 5 4 4 3 4 3 2 3 2 3 1 2 3 3
7 7 8 10 8 8 7 8 3 3 4 7 6 8 6 6 4 4 4 5 7 6 4 5 2 4 4 2 1 3 4 4
7 7 11 10 7 6 5 6 3 5 1 4 6 7 7 5 5 5 5 4 5 6 6 3 2 4 4 2 1 2 3 5
8 8 9 10 11 6 5 2 4 3 3 3 6 7 5 3 4 5 5 5 5 6 7 7 5 4 4 4 2 5 0 0
8 10 9 9 13 10 12 8 12 7 5 3 3 6 7 6 6 6 6 4 6 6 6 4 5 5 2 4 1 3 5 2
7 9 8 8 10 12 12 13 10 6 3 5 5 6 8 8 7 6 6 5 5 6 5 6 4 4 4 3 1 1 1 3
10 10 10 9 7 7 11 14 10 9 5 5 5 4 3 6 7 7 7 5 5 6 6 7 8 4 4 4 5 5 4 3
12 13 13 11 10 9 10 10 11 12 11 7 6 5 5 8 3 5 4 6 6 6 7 8 8 8 10 9 7 4 4 3
16 16 15 15 14 13 11 13 10 10 10 9 8 8 8 7 7 6 6 7 6 7 6 7 9 10 12 10 8 5 4 4
Wind_Direction
206 174 173 130 136 168 140 147 146 133 127 142 142 140 135 128 125 122 120 119 126 131 130 126 126 124 122 116 114 114 99 99
149 86 80 89 65 165 178 158 147 137 134 134 130 136 134 128 127 127 124 120 125 132 132 130 130 127 121 115 112 108 99 94
102 100 113 124 107 106 153 172 160 143 132 123 124 120 133 129 131 125 119 114 114 123 135 132 126 125 120 115 108 101 102 107
122 147 135 134 141 132 179 234 172 149 134 134 120 121 140 137 130 123 119 110 110 111 122 124 116 111 113 111 103 111 106 117
143 144 133 141 156 151 150 81 37 155 124 127 117 126 144 125 120 124 122 108 101 101 109 109 105 110 98 102 114 109 117 130
142 146 140 147 158 160 133 115 89 151 134 136 136 133 146 143 119 125 121 122 107 112 105 113 104 99 116 116 129 135 144 136
140 152 149 150 157 154 137 153 144 143 111 150 143 154 154 143 127 145 117 118 126 106 107 111 111 123 123 129 140 140 142 144
149 146 148 158 162 160 160 164 158 137 118 180 143 148 157 145 142 133 117 115 111 126 129 124 129 125 127 135 149 126 150 130
162 155 154 159 163 162 162 166 166 171 204 179 150 149 157 153 150 133 143 120 114 112 111 104 105 110 130 149 135 170 152 149
120 159 162 163 161 170 170 166 180 185 183 172 152 159 161 142 149 150 148 125 136 138 128 110 128 146 136 163 170 169 165 181
149 165 168 165 149 143 146 142 174 178 166 156 161 157 162 159 149 167 154 137 154 159 129 132 140 144 169 168 164 171 185 171
143 149 161 157 139 123 110 129 160 152 147 156 161 158 149 138 141 173 133 142 150 141 131 94 139 153 140 143 194 228 210 212
147 154 151 144 151 151 157 170 149 120 136 148 155 154 129 173 175 152 146 186 175 162 126 153 154 157 111 46 301 257 263 245
156 164 166 162 145 161 155 165 135 90 146 141 172 126 139 186 157 182 183 182 158 166 151 139 142 179 138 96 225 307 264 231
170 165 162 151 149 116 77 92 97 93 215 147 228 131 141 135 196 189 194 187 182 180 172 163 165 198 202 149 114 228 190 11
173 166 171 160 157 155 163 186 170 187 205 167 191 144 181 188 194 196 189 189 192 187 176 169 138 175 249 222 236 152 176 244
174 170 176 171 178 168 167 180 194 177 181 219 225 191 179 187 196 197 209 192 201 183 171 183 178 160 173 144 189 145 324 138
171 178 191 184 182 173 176 185 179 180 196 205 224 254 252 196 183 185 198 186 193 195 195 195 198 194 192 196 184 171 189 165
182 183 194 195 189 188 189 196 199 200 206 203 191 217 236 251 215 189 187 200 195 186 190 206 196 202 217 222 223 211 153 153
183 188 196 194 197 202 196 200 203 207 206 212 217 222 222 211 213 206 200 198 196 198 202 208 206 216 218 224 218 194 171 156